DW4075 Weather Reports


Display with metric or nautical units.
time (UTC)temp
F
wind
direction
speed
MPH
gust
MPH
rain 1hr
in
rain 24hr
in
rain mn
in
humidity
%
barometer
mb
20260905193259 88 178 4.0 13.0 0.00 0.00 0.00 34 1024.0
20260905192800 89 195 6.0 13.0 0.00 0.00 0.00 34 1024.2
20260905192259 88 223 5.0 13.0 0.00 0.00 0.00 34 1024.2
20260905191800 88 269 4.0 13.0 0.00 0.00 0.00 34 1024.2
20260905191300 88 276 5.0 12.0 0.00 0.00 0.00 34 1024.5
20260905190800 88 141 4.0 11.0 0.00 0.00 0.00 33 1024.5
20260905190300 87 323 1.0 13.0 0.00 0.00 0.00 33 1024.5
20260905185800 87 327 6.0 13.0 0.00 0.00 0.00 34 1024.7
20260905185518 87 251 5.0 10.0 0.00 0.00 0.00 34 1024.7
20260905184800 87 169 4.0 12.0 0.00 0.00 0.00 33 1024.9
20260905184259 87 140 7.0 12.0 0.00 0.00 0.00 33 1024.9
20260905183800 87 145 5.0 9.0 0.00 0.00 0.00 33 1025.0
20260905183301 86 162 1.0 9.0 0.00 0.00 0.00 34 1025.1
20260905183243 87 162 4.0 9.0 0.00 0.00 0.00 34 1025.2
20260905182300 86 227 2.0 7.0 0.00 0.00 0.00 34 1025.3
20260905181759 86 151 2.0 7.0 0.00 0.00 0.00 34 1025.2
20260905181300 86 151 2.0 9.0 0.00 0.00 0.00 35 1025.5
20260905181240 85 148 3.0 9.0 0.00 0.00 0.00 36 1025.5
20260905180300 85 127 1.0 5.0 0.00 0.00 0.00 35 1025.5
20260905175800 85 111 2.0 9.0 0.00 0.00 0.00 37 1025.6
20260905175300 85 94 2.0 9.0 0.00 0.00 0.00 38 1025.6
20260905174759 84 80 4.0 7.0 0.00 0.00 0.00 37 1025.7
20260905174300 84 185 2.0 6.0 0.00 0.00 0.00 38 1025.8
20260905173759 84 169 3.0 6.0 0.00 0.00 0.00 38 1025.8
20260905173259 83 134 1.0 9.0 0.00 0.00 0.00 39 1025.8
20260905173023 83 102 2.0 9.0 0.00 0.00 0.00 40 1025.9
20260905172300 83 144 5.0 7.0 0.00 0.00 0.00 38 1025.9
20260905171800 83 107 3.0 7.0 0.00 0.00 0.00 40 1025.9
20260905171259 83 63 1.0 7.0 0.00 0.00 0.00 40 1026.1
20260905170800 82 63 4.0 7.0 0.00 0.00 0.00 41 1025.9
20260905170300 82 56 3.0 7.0 0.00 0.00 0.00 42 1025.9
20260905165759 82 100 3.0 7.0 0.00 0.00 0.00 42 1025.9
20260905165300 82 96 4.0 7.0 0.00 0.00 0.00 42 1026.1
20260905164759 81 86 3.0 9.0 0.00 0.00 0.00 43 1026.1
20260905164259 81 110 2.0 9.0 0.00 0.00 0.00 43 1026.2
20260905163800 81 96 4.0 9.0 0.00 0.00 0.00 44 1026.2
20260905163259 80 82 2.0 5.0 0.00 0.00 0.00 46 1026.1
20260905162759 80 80 0.0 4.0 0.00 0.00 0.00 43 1026.1
20260905162259 80 80 1.0 5.0 0.00 0.00 0.00 45 1026.1
20260905161800 80 80 1.0 5.0 0.00 0.00 0.00 45 1026.1
20260905161300 79 80 2.0 4.0 0.00 0.00 0.00 45 1025.9
20260905160759 78 80 1.0 5.0 0.00 0.00 0.00 47 1026.1
20260905160259 78 80 3.0 5.0 0.00 0.00 0.00 46 1026.1
20260905155800 78 80 1.0 5.0 0.00 0.00 0.00 48 1026.1
20260905155300 77 80 2.0 7.0 0.00 0.00 0.00 50 1026.1
20260905154759 77 80 3.0 7.0 0.00 0.00 0.00 50 1026.2
20260905154259 76 86 1.0 5.0 0.00 0.00 0.00 50 1026.2
20260905153800 76 86 2.0 5.0 0.00 0.00 0.00 53 1026.2
20260905153259 75 86 1.0 5.0 0.00 0.00 0.00 54 1026.1
20260905152759 74 86 1.0 5.0 0.00 0.00 0.00 55 1026.2
20260905152300 74 87 1.0 6.0 0.00 0.00 0.00 57 1026.2
20260905151759 73 87 2.0 6.0 0.00 0.00 0.00 58 1026.3
20260905151259 72 87 2.0 5.0 0.00 0.00 0.00 59 1026.3
20260905150759 72 89 3.0 7.0 0.00 0.00 0.00 59 1026.3
20260905150259 72 89 4.0 7.0 0.00 0.00 0.00 60 1026.3
20260905145759 71 92 2.0 6.0 0.00 0.00 0.00 60 1026.3
20260905145259 71 92 2.0 6.0 0.00 0.00 0.00 60 1026.3
20260905144800 71 93 3.0 7.0 0.00 0.00 0.00 60 1026.3
20260905144300 71 97 2.0 7.0 0.00 0.00 0.00 59 1026.3
20260905143759 71 121 2.0 6.0 0.00 0.00 0.00 60 1026.4
20260905143259 71 128 3.0 6.0 0.00 0.00 0.00 60 1026.3
20260905142800 71 135 2.0 4.0 0.00 0.00 0.00 61 1026.2
20260905142259 70 135 0.0 5.0 0.00 0.00 0.00 61 1026.1
20260905141759 70 135 3.0 5.0 0.00 0.00 0.00 62 1026.1
20260905141739 69 137 1.0 3.0 0.00 0.00 0.00 65 1026.2
20260905140800 67 137 0.0 0.0 0.00 0.00 0.00 67 1026.2
20260905140300 66 137 0.0 0.0 0.00 0.00 0.00 70 1026.1
20260905135759 64 137 0.0 0.0 0.00 0.00 0.00 73 1025.9
20260905135259 63 137 0.0 0.0 0.00 0.00 0.00 76 1025.8
20260905134800 62 137 0.0 0.0 0.00 0.00 0.00 79 1025.8
20260905134259 60 137 0.0 0.0 0.00 0.00 0.00 80 1025.8
20260905133800 59 137 0.0 0.0 0.00 0.00 0.00 81 1025.8
20260905133259 58 137 0.0 0.0 0.00 0.00 0.00 81 1025.8
20260905132759 57 137 0.0 0.0 0.00 0.00 0.00 82 1025.7
20260905132523 57 137 0.0 0.0 0.00 0.00 0.00 82 1025.7
20260905131801 56 137 0.0 0.0 0.00 0.00 0.00 82 1025.7
20260905131300 56 137 0.0 0.0 0.00 0.00 0.00 82 1025.6
20260905130759 56 137 0.0 0.0 0.00 0.00 0.00 82 1025.5
20260905130259 56 137 0.0 0.0 0.00 0.00 0.00 82 1025.3
20260905130028 56 137 0.0 0.0 0.00 0.00 0.00 82 1025.3
20260905125259 56 137 0.0 0.0 0.00 0.00 0.00 81 1025.1
20260905124759 56 137 0.0 0.0 0.00 0.00 0.00 81 1025.0
20260905124259 56 137 0.0 0.0 0.00 0.00 0.00 80 1025.1
20260905123800 56 137 0.0 0.0 0.00 0.00 0.00 79 1025.0
20260905123523 57 137 0.0 0.0 0.00 0.00 0.00 78 1025.1
20260905122800 57 137 0.0 0.0 0.00 0.00 0.00 79 1025.1
20260905122519 57 137 0.0 0.0 0.00 0.00 0.00 79 1025.0
20260905121759 57 137 0.0 0.0 0.00 0.00 0.00 79 1025.1
20260905121300 57 137 0.0 0.0 0.00 0.00 0.00 79 1025.0
20260905120800 57 137 0.0 0.0 0.00 0.00 0.00 79 1025.0
20260905120259 57 137 0.0 0.0 0.00 0.00 0.00 78 1024.9
20260905115759 58 137 0.0 0.0 0.00 0.00 0.00 78 1024.9
20260905115259 58 137 0.0 0.0 0.00 0.00 0.00 78 1024.7
20260905114759 58 137 0.0 0.0 0.00 0.00 0.00 78 1024.9
20260905114259 58 137 0.0 0.0 0.00 0.00 0.00 79 1024.9
20260905113759 58 137 0.0 0.0 0.00 0.00 0.00 79 1024.9
20260905113259 58 137 0.0 0.0 0.00 0.00 0.00 79 1024.7
20260905113021 57 137 0.0 0.0 0.00 0.00 0.00 79 1024.9
20260905112259 57 137 0.0 0.0 0.00 0.00 0.00 79 1025.0
20260905111800 57 137 0.0 0.0 0.00 0.00 0.00 79 1025.0
20260905111259 57 137 0.0 0.0 0.00 0.00 0.00 79 1024.9
20260905110758 57 137 0.0 0.0 0.00 0.00 0.00 79 1024.9
20260905110259 57 137 0.0 0.0 0.00 0.00 0.00 79 1025.0
20260905110018 57 137 0.0 0.0 0.00 0.00 0.00 79 1025.0
20260905105259 57 137 0.0 0.0 0.00 0.00 0.00 79 1024.7
20260905104758 57 137 0.0 0.0 0.00 0.00 0.00 78 1024.7
20260905104259 57 137 0.0 0.0 0.00 0.00 0.00 78 1024.7
20260905103759 57 137 0.0 0.0 0.00 0.00 0.00 78 1024.7
20260905103300 57 137 0.0 0.0 0.00 0.00 0.00 78 1024.7
20260905102759 57 137 0.0 0.0 0.00 0.00 0.00 78 1024.7
20260905102259 57 137 0.0 0.0 0.00 0.00 0.00 78 1024.7
20260905101758 58 137 0.0 0.0 0.00 0.00 0.00 77 1024.9
20260905101521 58 137 0.0 0.0 0.00 0.00 0.00 77 1024.7
20260905101031 58 137 0.0 0.0 0.00 0.00 0.00 77 1024.9
20260905100259 58 137 0.0 0.0 0.00 0.00 0.00 77 1024.7
20260905095758 58 137 0.0 0.0 0.00 0.00 0.00 77 1024.6
20260905095258 58 137 0.0 0.0 0.00 0.00 0.00 77 1024.6
20260905094759 58 137 0.0 0.0 0.00 0.00 0.00 77 1024.6
20260905094516 58 137 0.0 0.0 0.00 0.00 0.00 77 1024.6
20260905093800 58 137 0.0 0.0 0.00 0.00 0.00 77 1024.6
20260905093259 58 137 0.0 0.0 0.00 0.00 0.00 76 1024.6
20260905092758 58 137 0.0 0.0 0.00 0.00 0.00 76 1024.5
20260905092259 58 137 0.0 0.0 0.00 0.00 0.00 76 1024.5
20260905091758 58 137 0.0 0.0 0.00 0.00 0.00 76 1024.5
20260905091522 58 137 0.0 0.0 0.00 0.00 0.00 76 1024.6
20260905090759 58 137 0.0 0.0 0.00 0.00 0.00 76 1024.6
20260905090259 58 137 0.0 0.0 0.00 0.00 0.00 76 1024.5
20260905090020 58 137 0.0 0.0 0.00 0.00 0.00 76 1024.5
20260905085516 58 137 0.0 0.0 0.00 0.00 0.00 75 1024.5
20260905084759 58 137 0.0 0.0 0.00 0.00 0.00 75 1024.6
20260905084259 59 137 0.0 0.0 0.00 0.00 0.00 75 1024.6
20260905083759 59 137 0.0 0.0 0.00 0.00 0.00 75 1024.6
20260905083258 59 137 0.0 0.0 0.00 0.00 0.00 74 1024.5
20260905082759 59 137 0.0 0.0 0.00 0.00 0.00 74 1024.6
20260905082259 60 137 0.0 0.0 0.00 0.00 0.00 74 1024.6
20260905081759 60 137 0.0 0.0 0.00 0.00 0.00 74 1024.6
20260905081300 60 137 0.0 0.0 0.00 0.00 0.00 73 1024.6
20260905080758 60 137 0.0 0.0 0.00 0.00 0.00 73 1024.6
20260905080259 60 137 0.0 0.0 0.00 0.00 0.00 73 1024.5
20260905075759 60 137 0.0 0.0 0.00 0.00 0.00 73 1024.6
20260905075259 60 137 0.0 0.0 0.00 0.00 0.00 73 1024.6
20260905074759 60 137 0.0 0.0 0.00 0.00 0.00 73 1024.6
20260905074258 60 137 0.0 0.0 0.00 0.00 0.00 73 1024.6
20260905074021 60 137 0.0 0.0 0.00 0.00 0.00 73 1024.5
20260905073259 60 137 0.0 0.0 0.00 0.00 0.00 74 1024.5
20260905073020 60 137 0.0 0.0 0.00 0.00 0.00 74 1024.5
20260905072259 60 137 0.0 0.0 0.00 0.00 0.00 74 1024.5
20260905071758 60 137 0.0 0.0 0.00 0.00 0.00 74 1024.5
20260905071521 60 137 0.0 0.0 0.00 0.00 0.00 73 1024.6
20260905071022 60 137 0.0 0.0 0.00 0.00 0.00 73 1024.6
20260905070259 60 137 0.0 0.0 0.00 0.00 0.00 73 1024.6
20260905065758 60 137 0.0 0.0 0.00 0.00 0.00 73 1024.6
20260905065300 60 137 0.0 0.0 0.00 0.00 0.00 73 1024.6
20260905064759 60 137 0.0 0.0 0.00 0.00 0.00 73 1024.6
20260905064259 61 137 0.0 0.0 0.00 0.00 0.00 73 1024.5
20260905063800 61 137 0.0 0.0 0.00 0.00 0.00 73 1024.5
20260905063259 61 137 0.0 0.0 0.00 0.00 0.00 72 1024.6
20260905062759 61 137 0.0 0.0 0.00 0.00 0.00 72 1024.6
20260905062517 61 137 0.0 0.0 0.00 0.00 0.00 73 1024.6
20260905061759 61 137 0.0 0.0 0.00 0.00 0.00 72 1024.6
20260905061259 61 137 0.0 0.0 0.00 0.00 0.00 71 1024.6
20260905060759 61 137 0.0 0.0 0.00 0.00 0.00 72 1024.5
20260905060440 61 137 0.0 0.0 0.00 0.00 0.00 72 1024.5
20260905055758 61 137 0.0 0.0 0.00 0.00 0.00 70 1024.5
20260905055259 62 137 0.0 0.0 0.00 0.00 0.00 70 1024.6
20260905054759 62 137 0.0 0.0 0.00 0.00 0.00 69 1024.5
20260905054259 62 137 0.0 0.0 0.00 0.00 0.00 69 1024.5
20260905053758 62 137 0.0 0.0 0.00 0.00 0.00 69 1024.5
20260905053258 62 137 0.0 2.0 0.00 0.00 0.00 69 1024.6
20260905052758 62 137 0.0 2.0 0.00 0.00 0.00 69 1024.6
20260905052259 62 137 2.0 3.0 0.00 0.00 0.00 69 1024.7
20260905051758 62 137 1.0 3.0 0.00 0.00 0.00 69 1024.6
20260905051258 62 137 0.0 0.0 0.00 0.00 0.00 67 1024.7
20260905050759 63 137 0.0 0.0 0.00 0.00 0.00 67 1024.7
20260905050258 63 137 0.0 0.0 0.00 0.00 0.00 66 1024.6
20260905045759 63 137 0.0 0.0 0.00 0.00 0.00 66 1024.9
20260905045259 64 137 0.0 0.0 0.00 0.00 0.00 66 1024.7
20260905045233 64 137 0.0 0.0 0.00 0.00 0.00 65 1025.0
20260905044258 64 137 0.0 0.0 0.00 0.00 0.00 65 1024.9
20260905043759 65 137 0.0 0.0 0.00 0.00 0.00 65 1025.0
20260905043516 65 137 0.0 0.0 0.00 0.00 0.00 64 1025.0
20260905042758 65 137 0.0 0.0 0.00 0.00 0.00 64 1025.0
20260905042522 66 137 0.0 0.0 0.00 0.00 0.00 64 1025.1
20260905041759 66 137 0.0 0.0 0.00 0.00 0.00 62 1025.1
20260905041258 67 137 0.0 0.0 0.00 0.00 0.00 62 1025.1
20260905040758 67 137 0.0 0.0 0.00 0.00 0.00 62 1025.1
20260905040259 67 137 0.0 0.0 0.00 0.00 0.00 62 1025.2
20260905035759 68 137 0.0 0.0 0.00 0.00 0.00 61 1025.2
20260905035258 68 137 0.0 0.0 0.00 0.00 0.00 60 1025.2
20260905034759 69 137 0.0 0.0 0.00 0.00 0.00 61 1025.2
20260905034300 69 137 0.0 0.0 0.00 0.00 0.00 60 1025.2
20260905033758 69 137 0.0 0.0 0.00 0.00 0.00 60 1025.2
20260905033258 69 137 0.0 0.0 0.00 0.00 0.00 60 1025.2
20260905033024 70 137 0.0 0.0 0.00 0.00 0.00 59 1025.2
20260905032258 70 137 0.0 1.0 0.00 0.00 0.00 59 1025.2
20260905031759 70 137 0.0 1.0 0.00 0.00 0.00 59 1025.2
20260905031258 70 137 0.0 1.0 0.00 0.00 0.00 59 1025.1
20260905031017 70 137 0.0 3.0 0.00 0.00 0.00 58 1025.2
20260905030258 70 137 1.0 4.0 0.00 0.00 0.00 58 1025.0
20260905025758 70 137 0.0 4.0 0.00 0.00 0.00 58 1025.0
20260905025521 71 137 0.0 2.0 0.00 0.00 0.00 58 1024.9
20260905024758 71 137 0.0 4.0 0.00 0.00 0.00 58 1024.7
20260905024258 71 137 1.0 5.0 0.00 0.00 0.00 58 1024.6
20260905023758 71 137 3.0 5.0 0.00 0.00 0.00 58 1024.5
20260905023258 71 137 1.0 5.0 0.00 0.00 0.00 58 1024.6
20260905022758 71 137 2.0 5.0 0.00 0.00 0.00 57 1024.5
20260905022258 72 137 2.0 5.0 0.00 0.00 0.00 57 1024.4
20260905021758 72 137 2.0 7.0 0.00 0.00 0.00 57 1024.1
20260905021258 72 137 4.0 7.0 0.00 0.00 0.00 56 1023.9
20260905020758 72 142 3.0 9.0 0.00 0.00 0.00 56 1023.6
20260905020522 73 144 5.0 9.0 0.00 0.00 0.00 56 1023.6
20260905015758 73 133 3.0 9.0 0.00 0.00 0.00 55 1023.5
20260905015259 74 124 4.0 10.0 0.00 0.00 0.00 55 1023.4
20260905014758 74 138 6.0 11.0 0.00 0.00 0.00 54 1023.5
20260905014258 75 123 5.0 12.0 0.00 0.00 0.00 52 1023.5
20260905013758 76 144 6.0 12.0 0.00 0.00 0.00 51 1023.4
20260905013258 77 114 6.0 14.0 0.00 0.00 0.00 48 1023.4
20260905013020 78 130 6.0 14.0 0.00 0.00 0.00 45 1023.4
20260905012258 79 135 5.0 9.0 0.00 0.00 0.00 41 1023.3
20260905011759 79 185 3.0 7.0 0.00 0.00 0.00 41 1023.2
20260905011258 79 193 4.0 9.0 0.00 0.00 0.00 41 1023.0
20260905010759 80 197 4.0 9.0 0.00 0.00 0.00 40 1022.9
20260905010257 80 183 4.0 10.0 0.00 0.00 0.00 41 1022.9
20260905005756 80 188 4.0 10.0 0.00 0.00 0.00 40 1022.9
20260905005256 80 186 2.0 10.0 0.00 0.00 0.00 40 1022.9
20260905005022 80 204 3.0 10.0 0.00 0.00 0.00 39 1022.9
20260905004738 80 237 7.0 10.0 0.00 0.00 0.00 39 1022.9
20260905003756 80 193 5.0 11.0 0.00 0.00 0.00 39 1022.9
20260905003256 81 183 4.0 11.0 0.00 0.00 0.00 39 1022.7
20260905003019 81 206 3.0 7.0 0.00 0.00 0.00 38 1022.5
20260905002257 81 195 4.0 13.0 0.00 0.00 0.00 38 1022.5
20260905002016 82 196 7.0 13.0 0.00 0.00 0.00 38 1022.5
20260905001256 82 182 5.0 12.0 0.00 0.00 0.00 38 1022.5
20260905000757 82 192 7.0 12.0 0.00 0.00 0.00 36 1022.4
20260905000736 83 206 5.0 12.0 0.00 0.00 0.00 37 1022.4
20260904235756 83 192 6.0 13.0 0.00 0.00 0.00 36 1022.2
20260904235256 84 219 8.0 13.0 0.00 0.00 0.00 35 1022.3
20260904234756 84 223 5.0 14.0 0.00 0.00 0.00 35 1022.2
20260904234256 85 212 6.0 15.0 0.00 0.00 0.00 34 1022.2
20260904234017 86 179 6.0 16.0 0.00 0.00 0.00 33 1022.1
20260904233256 86 209 8.0 16.0 0.00 0.00 0.00 33 1022.1
20260904232756 86 219 6.0 14.0 0.00 0.00 0.00 33 1022.1
20260904232256 87 172 6.0 12.0 0.00 0.00 0.00 33 1022.1
20260904232018 87 223 6.0 15.0 0.00 0.00 0.00 33 1022.1
20260904231256 87 172 6.0 15.0 0.00 0.00 0.00 32 1022.1
20260904230756 88 142 7.0 15.0 0.00 0.00 0.00 32 1022.1
20260904230257 88 182 9.0 15.0 0.00 0.00 0.00 32 1021.9
20260904225756 89 216 8.0 12.0 0.00 0.00 0.00 32 1021.8
20260904225256 89 196 7.0 14.0 0.00 0.00 0.00 31 1021.9
20260904224757 88 166 4.0 14.0 0.00 0.00 0.00 32 1021.9
20260904224513 88 250 6.0 12.0 0.00 0.00 0.00 32 1021.9
20260904223756 88 224 6.0 12.0 0.00 0.00 0.00 32 1021.9
20260904223256 88 212 4.0 9.0 0.00 0.00 0.00 32 1021.9
20260904223238 88 238 2.0 9.0 0.00 0.00 0.00 31 1021.8
20260904222256 89 240 5.0 9.0 0.00 0.00 0.00 31 1021.8
20260904221757 89 176 5.0 9.0 0.00 0.00 0.00 31 1021.9
20260904221256 89 281 4.0 6.0 0.00 0.00 0.00 30 1021.8
20260904220756 89 243 3.0 9.0 0.00 0.00 0.00 30 1021.9
20260904220522 89 228 3.0 11.0 0.00 0.00 0.00 31 1021.9
20260904215756 89 158 6.0 11.0 0.00 0.00 0.00 30 1022.1
20260904215257 89 188 6.0 9.0 0.00 0.00 0.00 31 1022.1
20260904214756 89 172 3.0 11.0 0.00 0.00 0.00 32 1022.1
20260904214256 89 193 4.0 11.0 0.00 0.00 0.00 31 1022.1
20260904213756 89 216 2.0 5.0 0.00 0.00 0.00 30 1022.2
20260904213256 89 240 2.0 10.0 0.00 0.00 0.00 30 1022.3
20260904213021 90 237 4.0 12.0 0.00 0.00 0.00 30 1022.4
20260904212450 89 228 6.0 12.0 0.00 0.00 0.00 32 1022.4
20260904211256 89 234 4.0 10.0 0.00 0.00 0.00 33 1022.5
20260904210756 88 104 4.0 9.0 0.00 0.00 0.00 32 1022.7
20260904210255 88 0 1.0 6.0 0.00 0.00 0.00 33 1022.7
20260904205756 88 0 3.0 7.0 0.00 0.00 0.00 34 1022.7
20260904205256 87 31 2.0 9.0 0.00 0.00 0.00 34 1022.7
20260904204756 88 16 4.0 9.0 0.00 0.00 0.00 34 1022.8
20260904204257 88 343 3.0 10.0 0.00 0.00 0.00 33 1023.0
20260904204016 87 345 4.0 10.0 0.00 0.00 0.00 35 1023.2
20260904203257 87 314 4.0 9.0 0.00 0.00 0.00 35 1023.2
20260904202756 87 323 3.0 7.0 0.00 0.00 0.00 35 1023.4
20260904202256 86 286 1.0 10.0 0.00 0.00 0.00 36 1023.4
20260904201756 86 319 2.0 10.0 0.00 0.00 0.00 37 1023.5
20260904201256 86 295 4.0 9.0 0.00 0.00 0.00 36 1023.6
20260904200756 85 176 4.0 9.0 0.00 0.00 0.00 37 1023.8
20260904200516 85 204 3.0 10.0 0.00 0.00 0.00 36 1023.9
20260904195756 86 300 4.0 14.0 0.00 0.00 0.00 38 1023.9
20260904195519 85 217 4.0 14.0 0.00 0.00 0.00 38 1024.0
20260904195022 86 164 6.0 12.0 0.00 0.00 0.00 37 1024.1
20260904194514 86 192 3.0 11.0 0.00 0.00 0.00 37 1024.2
20260904193756 85 221 5.0 11.0 0.00 0.00 0.00 38 1024.1